Flag for Ireland Weather past 2 weeks in Cork, Ireland

Now
45 °F

Overcast.


Feels Like: 42 °F
Forecast: N/A
Wind: 5 mph from Southwest

Location: Cork Airport

Current Time: Dec 20, 2014 at 5:24:26 PM

Latest Report: Dec 20, 2014 at 4:00 PM


Visibility: 22 mi

Pressure: 30.45 "Hg

Humidity: 92%

Dew point: 43 °F

Location of CorkLocation

Historic Weather in Cork — Graph

°F

Cork temperature yesterday

Maximum temperature yesterday: 47 °F (at 12:00 AM)
Minimum temperature yesterday: 37 °F (at 8:00 AM)
Average temperature yesterday: 43 °F

Past Weeks' High & Low Weather Summary

 TemperatureHumidityPressure
High54 °F (Dec 18, 10:00 AM)100% (Dec 6, 6:00 PM)30.47 "Hg (Dec 6, 6:00 PM)
Low33 °F (Dec 12, 9:00 AM)62% (Dec 7, 1:00 PM)29.32 "Hg (Dec 11, 11:00 PM)
Average44 °F90%30.00 "Hg
* Reported Dec 5 4:00 PM — Dec 20 4:00 PM, Cork, Weather by CustomWeather, © 2014

Note: Actual official high and low records may vary slightly from our data, if they occured in-between our weather recording intervals... More about our weather records

Advertising

Cork weather history for previous 24 hours

 ConditionsComfort  
Time TempWeatherWind HumidityBarometerVisibility
4:00 PM
Dec 20
45 °FOvercast.5 mph92%30.45 "Hg22 mi
3:00 PM47 °FOvercast.5 mph83%30.45 "Hg28 mi
2:00 PM46 °FPartly sunny.5 mph84%30.45 "Hg37 mi
1:00 PM46 °FPartly sunny.6 mph83%30.45 "Hg37 mi
12:00 PM46 °FPassing clouds.5 mph82%30.46 "Hg25 mi
11:00 AM45 °FScattered clouds.6 mph86%30.45 "Hg25 mi
10:00 AM43 °FScattered clouds.3 mph87%30.45 "Hg22 mi
9:00 AM42 °FScattered clouds.6 mph87%30.45 "Hg22 mi
8:00 AM43 °FOvercast.5 mph84%30.43 "Hg19 mi
7:00 AM44 °FOvercast.5 mph80%30.41 "Hg19 mi
6:00 AM44 °FOvercast.5 mph77%30.39 "Hg19 mi
5:00 AM44 °FOvercast.7 mph77%30.37 "Hg19 mi
4:00 AM42 °FPassing clouds.6 mph89%30.36 "Hg19 mi
3:00 AM41 °FPassing clouds.5 mph91%30.36 "Hg19 mi
2:00 AM41 °FPassing clouds.5 mph90%30.35 "Hg19 mi
1:00 AM41 °FPassing clouds.6 mph88%30.34 "Hg16 mi
12:00 AM39 °FPassing clouds.5 mph97%30.34 "Hg16 mi
11:00 PM
Dec 19
41 °FPassing clouds.6 mph93%30.32 "Hg19 mi
10:00 PM38 °FPassing clouds.3 mph94%30.32 "Hg19 mi
8:00 PM41 °FPassing clouds.6 mph85%30.29 "Hg19 mi
7:00 PM42 °FPassing clouds.6 mph84%30.27 "Hg19 mi
6:00 PM41 °FPassing clouds.5 mph86%30.24 "Hg19 mi
5:00 PM41 °FPassing clouds.5 mph85%30.23 "Hg25 mi
Weather by CustomWeather, © 2014

See weather overviewHow to use our weather pages